AEE4312 LGRP-EFOU

Flight info

Callsign AEE4312
Flight time 4h 33m
Altitude 36000
Route VANES M601 GILOS UM601 ADESO UN133 RIGRO DCT ATFIR DCT RUPUG DCT ETNOG DCT KSC DCT LOGDA/N0453F370 DCT SUWGI/N0449F360 DCT BERIL/N0450F370 DCT LUTAL/N0453F380 DCT TEVRU Y75 SUVIB
Aircraft A320/M-SDE2GHIJ1RTWY/SB1

Departure

Time 2026-04-29 13:47
Airport Rhodes International Airport "Diagoras" (LGRP)

Arrival

Time 2026-04-29 18:21
Airport Oulu Airport (EFOU)
Time Latitude Longitude Altitude Speed Heading
2026-04-29 13:13 36.40374 28.09187 28 ft 0 kts 160°
2026-04-29 13:29 36.40376 28.09186 28 ft 2 kts 160°
2026-04-29 13:29 36.40400 28.09175 28 ft 3 kts 160°
2026-04-29 13:29 36.40420 28.09165 28 ft 4 kts 142°
2026-04-29 13:30 36.40435 28.09140 28 ft 4 kts 93°
2026-04-29 13:30 36.40430 28.09110 28 ft 4 kts 70°
2026-04-29 13:30 36.40426 28.09096 28 ft 1 kts 70°
2026-04-29 13:42 36.40429 28.09106 28 ft 3 kts 70°
2026-04-29 13:43 36.40441 28.09145 28 ft 6 kts 70°
2026-04-29 13:43 36.40457 28.09202 28 ft 8 kts 70°
2026-04-29 13:43 36.40478 28.09273 28 ft 10 kts 70°
2026-04-29 13:43 36.40514 28.09351 28 ft 11 kts 46°
2026-04-29 13:44 36.40579 28.09415 28 ft 13 kts 47°
2026-04-29 13:44 36.40619 28.09520 28 ft 14 kts 70°
2026-04-29 13:44 36.40655 28.09643 28 ft 16 kts 70°
2026-04-29 13:44 36.40695 28.09779 28 ft 18 kts 70°
2026-04-29 13:45 36.40739 28.09928 28 ft 19 kts 70°
2026-04-29 13:45 36.40785 28.10086 28 ft 20 kts 70°
2026-04-29 13:45 36.40835 28.10256 28 ft 21 kts 70°
2026-04-29 13:45 36.40879 28.10405 28 ft 11 kts 68°
2026-04-29 13:46 36.40941 28.10433 28 ft 11 kts 340°
2026-04-29 13:46 36.41000 28.10364 27 ft 13 kts 302°
2026-04-29 13:46 36.41021 28.10262 28 ft 12 kts 253°
2026-04-29 13:46 36.40988 28.10150 28 ft 21 kts 250°
2026-04-29 13:47 36.40851 28.09686 28 ft 91 kts 250°
2026-04-29 13:47 36.40564 28.08709 29 ft 146 kts 250°
2026-04-29 13:47 36.40194 28.07424 466 ft 157 kts 250°
2026-04-29 13:47 36.39914 28.06115 1175 ft 159 kts 265°
2026-04-29 13:48 36.39805 28.04750 1902 ft 162 kts 266°
2026-04-29 13:48 36.39693 28.03272 2211 ft 183 kts 266°
2026-04-29 13:48 36.39575 28.01621 2561 ft 201 kts 265°
2026-04-29 13:48 36.39445 27.99834 2957 ft 216 kts 265°
2026-04-29 13:49 36.39296 27.97893 3302 ft 235 kts 264°
2026-04-29 13:49 36.39126 27.95798 3734 ft 252 kts 264°
2026-04-29 13:49 36.38948 27.93570 4220 ft 266 kts 264°
2026-04-29 13:49 36.38765 27.91269 4965 ft 268 kts 264°
2026-04-29 13:50 36.38584 27.88956 5709 ft 271 kts 265°
2026-04-29 13:50 36.38402 27.86608 6442 ft 274 kts 265°
2026-04-29 13:50 36.38333 27.84239 7132 ft 277 kts 271°
2026-04-29 13:50 36.38363 27.81840 7850 ft 279 kts 272°
2026-04-29 13:51 36.38406 27.79425 8576 ft 281 kts 272°
2026-04-29 13:51 36.38447 27.76994 9295 ft 283 kts 272°
2026-04-29 13:51 36.38485 27.74533 9998 ft 286 kts 273°
2026-04-29 13:51 36.38639 27.72024 10376 ft 300 kts 278°
2026-04-29 13:52 36.38969 27.69380 10556 ft 320 kts 280°
2026-04-29 13:52 36.39332 27.66587 10836 ft 334 kts 279°
2026-04-29 13:52 36.39696 27.63726 11438 ft 337 kts 279°
2026-04-29 13:52 36.40057 27.60848 12077 ft 339 kts 279°
2026-04-29 13:53 36.40420 27.57945 12702 ft 341 kts 279°
2026-04-29 13:53 36.40785 27.55024 13319 ft 344 kts 279°
2026-04-29 13:53 36.41149 27.52114 13906 ft 347 kts 279°
2026-04-29 13:53 36.41519 27.49144 14459 ft 349 kts 279°
2026-04-29 13:54 36.41892 27.46150 15002 ft 351 kts 279°
2026-04-29 13:54 36.42265 27.43150 15543 ft 353 kts 279°
2026-04-29 13:54 36.42640 27.40126 16075 ft 355 kts 278°
2026-04-29 13:54 36.43016 27.37082 16605 ft 358 kts 278°
2026-04-29 13:55 36.43394 27.34015 17146 ft 360 kts 278°
2026-04-29 13:55 36.43774 27.30919 17667 ft 363 kts 278°
2026-04-29 13:55 36.44152 27.27853 18177 ft 366 kts 278°
2026-04-29 13:55 36.44536 27.24722 18625 ft 368 kts 278°
2026-04-29 13:56 36.44922 27.21572 19041 ft 370 kts 278°
2026-04-29 13:56 36.45309 27.18393 19471 ft 373 kts 278°
2026-04-29 13:56 36.45697 27.15201 19893 ft 375 kts 278°
2026-04-29 13:56 36.46087 27.11992 20320 ft 377 kts 278°
2026-04-29 13:57 36.46478 27.08759 20738 ft 379 kts 278°
2026-04-29 13:57 36.46876 27.05511 21162 ft 381 kts 280°
2026-04-29 13:57 36.47707 27.02383 21534 ft 384 kts 297°
2026-04-29 13:57 36.48661 27.00527 21797 ft 387 kts 308°
2026-04-29 13:58 36.51312 26.97462 22310 ft 392 kts 320°
2026-04-29 13:58 36.53434 26.95379 22702 ft 394 kts 321°
2026-04-29 13:58 36.55596 26.93274 23111 ft 396 kts 320°
2026-04-29 13:58 36.57762 26.91141 23492 ft 398 kts 320°
2026-04-29 13:59 36.59932 26.88981 23824 ft 400 kts 320°
2026-04-29 13:59 36.62103 26.86802 24157 ft 401 kts 320°
2026-04-29 13:59 36.64277 26.84611 24494 ft 403 kts 320°
2026-04-29 13:59 36.66457 26.82408 24817 ft 404 kts 320°
2026-04-29 14:00 36.68653 26.80189 25125 ft 406 kts 320°
2026-04-29 14:00 36.70847 26.77969 25422 ft 408 kts 320°
2026-04-29 14:00 36.73062 26.75727 25728 ft 409 kts 320°
2026-04-29 14:00 36.75275 26.73485 26026 ft 411 kts 320°
2026-04-29 14:01 36.77500 26.71230 26311 ft 413 kts 320°
2026-04-29 14:01 36.79731 26.68968 26584 ft 415 kts 319°
2026-04-29 14:01 36.81945 26.66721 26844 ft 416 kts 319°
2026-04-29 14:01 36.84197 26.64433 27109 ft 418 kts 320°
2026-04-29 14:02 36.86460 26.62132 27356 ft 420 kts 320°
2026-04-29 14:02 36.88732 26.59821 27611 ft 422 kts 320°
2026-04-29 14:02 36.91015 26.57497 27848 ft 423 kts 320°
2026-04-29 14:02 36.93305 26.55164 28088 ft 425 kts 320°
2026-04-29 14:03 36.95602 26.52821 28302 ft 427 kts 320°
2026-04-29 14:03 36.97909 26.50466 28527 ft 429 kts 320°
2026-04-29 14:03 37.00223 26.48104 28747 ft 430 kts 320°
2026-04-29 14:03 37.02545 26.45730 28972 ft 432 kts 320°
2026-04-29 14:04 37.04875 26.43347 29171 ft 433 kts 319°
2026-04-29 14:04 37.07215 26.40951 29376 ft 434 kts 320°
2026-04-29 14:04 37.09527 26.38582 29576 ft 436 kts 319°
2026-04-29 14:04 37.11879 26.36171 29778 ft 437 kts 319°
2026-04-29 14:05 37.14237 26.33751 29951 ft 439 kts 319°
2026-04-29 14:05 37.16608 26.31315 30146 ft 440 kts 319°
2026-04-29 14:05 37.18978 26.28879 30318 ft 441 kts 319°
2026-04-29 14:05 37.20582 26.27229 30438 ft 442 kts 319°
2026-04-29 14:06 37.22932 26.24810 30619 ft 443 kts 319°
2026-04-29 14:06 37.25318 26.22352 30804 ft 443 kts 319°
2026-04-29 14:06 37.27706 26.19889 30984 ft 444 kts 319°
2026-04-29 14:06 37.30097 26.17422 31192 ft 444 kts 319°
2026-04-29 14:07 37.32484 26.14957 31431 ft 443 kts 319°
2026-04-29 14:07 37.34860 26.12500 31690 ft 442 kts 319°
2026-04-29 14:07 37.37234 26.10045 31937 ft 441 kts 319°
2026-04-29 14:07 37.39599 26.07595 32180 ft 440 kts 319°
2026-04-29 14:08 37.41954 26.05155 32426 ft 438 kts 319°
2026-04-29 14:08 37.44308 26.02713 32665 ft 437 kts 319°
2026-04-29 14:08 37.46654 26.00277 32863 ft 437 kts 319°
2026-04-29 14:08 37.48996 25.97845 33085 ft 436 kts 319°
2026-04-29 14:09 37.51329 25.95418 33299 ft 435 kts 319°
2026-04-29 14:09 37.53662 25.92990 33509 ft 434 kts 319°
2026-04-29 14:09 37.55994 25.90585 33711 ft 433 kts 321°
2026-04-29 14:09 37.58458 25.88397 33895 ft 433 kts 326°
2026-04-29 14:10 37.61071 25.86505 34084 ft 433 kts 331°
2026-04-29 14:10 37.63806 25.84911 34231 ft 434 kts 336°
2026-04-29 14:10 37.66603 25.83469 34365 ft 433 kts 335°
2026-04-29 14:10 37.69388 25.82022 34502 ft 433 kts 335°
2026-04-29 14:11 37.72173 25.80571 34642 ft 432 kts 335°
2026-04-29 14:11 37.74915 25.79141 34789 ft 432 kts 335°
2026-04-29 14:11 37.77691 25.77692 34904 ft 432 kts 335°
2026-04-29 14:11 37.80467 25.76244 35020 ft 431 kts 335°
2026-04-29 14:12 37.83241 25.74794 35156 ft 431 kts 335°
2026-04-29 14:12 37.86011 25.73346 35266 ft 430 kts 335°
2026-04-29 14:12 37.88774 25.71899 35387 ft 430 kts 335°
2026-04-29 14:12 37.91544 25.70449 35512 ft 429 kts 335°
2026-04-29 14:13 37.94299 25.69004 35617 ft 429 kts 335°
2026-04-29 14:13 37.97056 25.67556 35717 ft 429 kts 335°
2026-04-29 14:13 37.99814 25.66108 35828 ft 428 kts 335°
2026-04-29 14:13 38.02569 25.64660 35932 ft 428 kts 335°
2026-04-29 14:14 38.08037 25.61781 36061 ft 427 kts 335°
2026-04-29 14:14 38.13519 25.58890 36058 ft 426 kts 335°
2026-04-29 14:15 38.19009 25.55991 36060 ft 426 kts 334°
2026-04-29 14:15 38.24486 25.53093 36060 ft 426 kts 334°
2026-04-29 14:16 38.29961 25.50193 36058 ft 426 kts 334°
2026-04-29 14:16 38.35429 25.47291 36058 ft 426 kts 334°
2026-04-29 14:17 38.40900 25.44382 36063 ft 426 kts 334°
2026-04-29 14:17 38.46373 25.41467 36067 ft 426 kts 334°
2026-04-29 14:18 38.51843 25.38550 36068 ft 426 kts 334°
2026-04-29 14:18 38.57273 25.35648 36069 ft 426 kts 334°
2026-04-29 14:19 38.62738 25.32724 36069 ft 426 kts 334°
2026-04-29 14:19 38.68198 25.29797 36075 ft 425 kts 334°
2026-04-29 14:20 38.73666 25.26861 36073 ft 425 kts 334°
2026-04-29 14:20 38.79120 25.23928 36076 ft 425 kts 334°
2026-04-29 14:21 38.84570 25.20992 36078 ft 425 kts 334°
2026-04-29 14:21 38.90018 25.18053 36078 ft 424 kts 334°
2026-04-29 14:22 38.95462 25.15111 36079 ft 424 kts 334°
2026-04-29 14:22 39.00864 25.12186 36074 ft 423 kts 334°
2026-04-29 14:23 39.06296 25.09241 36071 ft 423 kts 334°
2026-04-29 14:23 39.11726 25.06291 36071 ft 423 kts 334°
2026-04-29 14:24 39.17145 25.03343 36069 ft 422 kts 334°
2026-04-29 14:24 39.22526 25.00410 36072 ft 422 kts 334°
2026-04-29 14:25 39.27936 24.97457 36072 ft 422 kts 334°
2026-04-29 14:25 39.33345 24.94500 36072 ft 422 kts 334°
2026-04-29 14:26 39.38749 24.91540 36067 ft 421 kts 334°
2026-04-29 14:26 39.44148 24.88578 36065 ft 421 kts 334°
2026-04-29 14:27 39.49551 24.85608 36067 ft 421 kts 334°
2026-04-29 14:28 39.57613 24.81168 36073 ft 421 kts 334°
2026-04-29 14:28 39.63037 24.78174 36075 ft 421 kts 334°
2026-04-29 14:29 39.68392 24.75214 36076 ft 421 kts 334°
2026-04-29 14:29 39.73778 24.72231 36075 ft 421 kts 334°
2026-04-29 14:30 39.79161 24.69245 36082 ft 420 kts 334°
2026-04-29 14:30 39.84538 24.66257 36085 ft 420 kts 334°
2026-04-29 14:31 39.89917 24.63263 36085 ft 420 kts 334°
2026-04-29 14:31 39.95287 24.60268 36081 ft 419 kts 334°
2026-04-29 14:32 40.00646 24.57275 36081 ft 419 kts 333°
2026-04-29 14:32 40.06003 24.54278 36085 ft 419 kts 333°
2026-04-29 14:33 40.11318 24.51299 36081 ft 418 kts 333°
2026-04-29 14:33 40.16664 24.48297 36079 ft 418 kts 333°
2026-04-29 14:34 40.22007 24.45293 36085 ft 417 kts 333°
2026-04-29 14:34 40.27339 24.42289 36082 ft 417 kts 333°
2026-04-29 14:35 40.32667 24.39282 36079 ft 416 kts 333°
2026-04-29 14:35 40.37990 24.36273 36077 ft 416 kts 333°
2026-04-29 14:36 40.43266 24.33285 36075 ft 416 kts 333°
2026-04-29 14:36 40.48571 24.30276 36074 ft 415 kts 333°
2026-04-29 14:37 40.53879 24.27260 36071 ft 415 kts 333°
2026-04-29 14:37 40.59176 24.24245 36073 ft 414 kts 333°
2026-04-29 14:38 40.64465 24.21229 36074 ft 414 kts 333°
2026-04-29 14:38 40.69754 24.18207 36071 ft 414 kts 333°
2026-04-29 14:39 40.75038 24.15184 36071 ft 414 kts 333°
2026-04-29 14:39 40.80316 24.12159 36061 ft 413 kts 333°
2026-04-29 14:40 40.85589 24.09132 36070 ft 413 kts 333°
2026-04-29 14:40 40.90857 24.06102 36067 ft 413 kts 333°
2026-04-29 14:41 40.96096 24.03082 36075 ft 413 kts 333°
2026-04-29 14:41 41.01366 24.00041 36072 ft 413 kts 333°
2026-04-29 14:42 41.06638 23.96993 36063 ft 413 kts 333°
2026-04-29 14:42 41.11890 23.93951 36055 ft 412 kts 333°
2026-04-29 14:43 41.17139 23.90904 36051 ft 411 kts 332°
2026-04-29 14:43 41.22386 23.87855 36048 ft 411 kts 332°
2026-04-29 14:44 41.27620 23.84809 36045 ft 410 kts 332°
2026-04-29 14:44 41.32856 23.81758 36043 ft 410 kts 332°
2026-04-29 14:45 41.38132 23.78844 36043 ft 412 kts 336°
2026-04-29 14:45 41.43612 23.76679 36041 ft 415 kts 342°
2026-04-29 14:46 41.49309 23.75161 36051 ft 417 kts 344°
2026-04-29 14:46 41.55013 23.73731 36038 ft 417 kts 344°
2026-04-29 14:47 41.60719 23.72290 36036 ft 417 kts 344°
2026-04-29 14:47 41.66423 23.70845 36041 ft 417 kts 344°
2026-04-29 14:48 41.72085 23.69407 36033 ft 416 kts 344°
2026-04-29 14:48 41.77774 23.67960 36036 ft 416 kts 344°
2026-04-29 14:49 41.83469 23.66512 36039 ft 416 kts 344°
2026-04-29 14:49 41.89165 23.65057 36051 ft 417 kts 344°
2026-04-29 14:50 41.94868 23.63598 36059 ft 417 kts 344°
2026-04-29 14:50 42.00580 23.62134 36067 ft 417 kts 343°
2026-04-29 14:51 42.06227 23.60686 36063 ft 415 kts 343°
2026-04-29 14:51 42.11890 23.59230 36064 ft 414 kts 343°
2026-04-29 14:52 42.16640 23.58007 36076 ft 415 kts 343°
2026-04-29 14:52 42.22327 23.56538 36089 ft 416 kts 343°
2026-04-29 14:53 42.27979 23.55078 36092 ft 416 kts 343°
2026-04-29 14:53 42.33667 23.53606 36094 ft 415 kts 343°
2026-04-29 14:54 42.39335 23.52137 36088 ft 414 kts 343°
2026-04-29 14:54 42.44989 23.50667 36083 ft 412 kts 343°
2026-04-29 14:55 42.50622 23.49201 36069 ft 411 kts 343°
2026-04-29 14:55 42.56227 23.47738 36068 ft 410 kts 343°
2026-04-29 14:56 42.61793 23.46283 36062 ft 409 kts 343°
2026-04-29 14:56 42.67382 23.44820 36065 ft 409 kts 343°
2026-04-29 14:57 42.72973 23.43353 36065 ft 408 kts 342°
2026-04-29 14:57 42.78550 23.41888 36065 ft 408 kts 342°
2026-04-29 14:58 42.84127 23.40419 36066 ft 408 kts 342°
2026-04-29 14:58 42.89672 23.38956 36065 ft 409 kts 342°
2026-04-29 14:59 42.95255 23.37480 36072 ft 408 kts 342°
2026-04-29 14:59 43.00842 23.36001 36081 ft 409 kts 342°
2026-04-29 15:00 43.06440 23.34516 36096 ft 409 kts 342°
2026-04-29 15:00 43.12033 23.33030 36097 ft 409 kts 342°
2026-04-29 15:01 43.17627 23.31542 36091 ft 409 kts 342°
2026-04-29 15:01 43.23224 23.30048 36097 ft 410 kts 342°
2026-04-29 15:02 43.28792 23.28560 36106 ft 410 kts 342°
2026-04-29 15:02 43.34394 23.27061 36110 ft 410 kts 342°
2026-04-29 15:03 43.39997 23.25559 36119 ft 410 kts 342°
2026-04-29 15:03 43.45600 23.24053 36117 ft 410 kts 342°
2026-04-29 15:04 43.51204 23.22545 36122 ft 410 kts 342°
2026-04-29 15:04 43.56807 23.21034 36123 ft 410 kts 342°
2026-04-29 15:05 43.62411 23.19519 36126 ft 410 kts 342°
2026-04-29 15:05 43.68008 23.18004 36126 ft 409 kts 342°
2026-04-29 15:06 43.73607 23.16485 36120 ft 409 kts 342°
2026-04-29 15:06 43.79195 23.14966 36117 ft 409 kts 342°
2026-04-29 15:07 43.84780 23.13446 36119 ft 409 kts 342°
2026-04-29 15:07 43.90324 23.11933 36119 ft 408 kts 341°
2026-04-29 15:08 43.95900 23.10409 36117 ft 408 kts 341°
2026-04-29 15:08 44.01476 23.08883 36118 ft 408 kts 341°
2026-04-29 15:09 44.07043 23.07355 36117 ft 408 kts 341°
2026-04-29 15:09 44.12586 23.05831 36117 ft 408 kts 341°
2026-04-29 15:10 44.18155 23.04297 36118 ft 408 kts 341°
2026-04-29 15:10 44.23720 23.02761 36117 ft 408 kts 341°
2026-04-29 15:11 44.29288 23.01222 36116 ft 408 kts 341°
2026-04-29 15:11 44.34862 22.99677 36124 ft 408 kts 341°
2026-04-29 15:12 44.40442 22.98128 36125 ft 409 kts 341°
2026-04-29 15:12 44.46022 22.96576 36127 ft 409 kts 341°
2026-04-29 15:13 44.51611 22.95019 36127 ft 409 kts 341°
2026-04-29 15:13 44.57196 22.93460 36121 ft 409 kts 341°
2026-04-29 15:14 44.62749 22.91906 36124 ft 409 kts 341°
2026-04-29 15:14 44.68333 22.90340 36120 ft 409 kts 341°
2026-04-29 15:15 44.73917 22.88772 36123 ft 409 kts 341°
2026-04-29 15:15 44.79509 22.87198 36129 ft 411 kts 341°
2026-04-29 15:16 44.85117 22.85617 36128 ft 411 kts 341°
2026-04-29 15:16 44.90687 22.84045 36130 ft 410 kts 341°
2026-04-29 15:17 44.96285 22.82459 36117 ft 409 kts 341°
2026-04-29 15:17 45.01876 22.80874 36115 ft 409 kts 341°
2026-04-29 15:18 45.07443 22.79294 36120 ft 408 kts 341°
2026-04-29 15:18 45.13004 22.77709 36122 ft 408 kts 341°
2026-04-29 15:19 45.18546 22.76127 36118 ft 408 kts 341°
2026-04-29 15:19 45.24111 22.74536 36125 ft 408 kts 341°
2026-04-29 15:20 45.29680 22.72941 36139 ft 408 kts 341°
2026-04-29 15:20 45.35258 22.71338 36131 ft 409 kts 341°
2026-04-29 15:21 45.40831 22.69735 36132 ft 408 kts 341°
2026-04-29 15:21 45.46397 22.68131 36137 ft 408 kts 341°
2026-04-29 15:22 45.51928 22.66532 36133 ft 408 kts 341°
2026-04-29 15:22 45.57480 22.64926 36136 ft 406 kts 341°
2026-04-29 15:23 45.63020 22.63320 36119 ft 406 kts 341°
2026-04-29 15:23 45.68549 22.61714 36116 ft 405 kts 341°
2026-04-29 15:24 45.74068 22.60108 36109 ft 405 kts 341°
2026-04-29 15:24 45.79588 22.58496 36112 ft 404 kts 341°
2026-04-29 15:25 45.85105 22.56884 36108 ft 405 kts 341°
2026-04-29 15:25 45.90631 22.55266 36112 ft 405 kts 341°
2026-04-29 15:26 45.96127 22.53653 36106 ft 405 kts 341°
2026-04-29 15:26 46.01655 22.52025 36106 ft 406 kts 341°
2026-04-29 15:27 46.07197 22.50392 36110 ft 406 kts 341°
2026-04-29 15:27 46.12747 22.48757 36109 ft 407 kts 341°
2026-04-29 15:28 46.18306 22.47111 36115 ft 408 kts 341°
2026-04-29 15:28 46.23846 22.45467 36116 ft 410 kts 341°
2026-04-29 15:29 46.29434 22.43806 36118 ft 410 kts 341°
2026-04-29 15:30 46.40677 22.40456 36148 ft 414 kts 341°
2026-04-29 15:30 46.46334 22.38764 36157 ft 415 kts 341°
2026-04-29 15:31 46.52006 22.37065 36166 ft 416 kts 341°
2026-04-29 15:31 46.57689 22.35359 36179 ft 416 kts 341°
2026-04-29 15:32 46.63338 22.33659 36186 ft 417 kts 341°
2026-04-29 15:32 46.69031 22.31943 36188 ft 417 kts 341°
2026-04-29 15:33 46.74714 22.30227 36191 ft 417 kts 341°
2026-04-29 15:33 46.80392 22.28509 36184 ft 416 kts 341°
2026-04-29 15:34 46.86060 22.26791 36188 ft 415 kts 341°
2026-04-29 15:34 46.91656 22.25026 36182 ft 413 kts 339°
2026-04-29 15:35 46.97205 22.22946 36186 ft 412 kts 339°
2026-04-29 15:35 47.02761 22.20893 36180 ft 411 kts 339°
2026-04-29 15:36 47.08300 22.18834 36171 ft 410 kts 339°
2026-04-29 15:36 47.13842 22.16761 36166 ft 410 kts 339°
2026-04-29 15:37 47.19371 22.14687 36161 ft 410 kts 339°
2026-04-29 15:37 47.24862 22.12623 36153 ft 410 kts 339°
2026-04-29 15:38 47.30388 22.10542 36155 ft 410 kts 339°
2026-04-29 15:38 47.35913 22.08456 36161 ft 410 kts 339°
2026-04-29 15:39 47.41444 22.06363 36167 ft 410 kts 339°
2026-04-29 15:39 47.46983 22.04264 36177 ft 411 kts 339°
2026-04-29 15:40 47.52529 22.02156 36182 ft 412 kts 339°
2026-04-29 15:40 47.58056 22.00052 36190 ft 413 kts 339°
2026-04-29 15:41 47.62707 21.98201 36201 ft 412 kts 337°
2026-04-29 15:41 47.68098 21.95412 36208 ft 409 kts 333°
2026-04-29 15:42 47.73303 21.92013 36225 ft 408 kts 330°
2026-04-29 15:42 47.78414 21.88452 36238 ft 408 kts 330°
2026-04-29 15:43 47.83565 21.84866 36249 ft 408 kts 330°
2026-04-29 15:43 47.88712 21.81281 36259 ft 408 kts 330°
2026-04-29 15:44 47.93853 21.77693 36262 ft 408 kts 330°
2026-04-29 15:44 47.98996 21.74096 36263 ft 408 kts 330°
2026-04-29 15:45 48.04125 21.70500 36251 ft 407 kts 330°
2026-04-29 15:45 48.09217 21.66923 36242 ft 406 kts 330°
2026-04-29 15:46 48.14332 21.63321 36233 ft 406 kts 330°
2026-04-29 15:46 48.19446 21.59712 36226 ft 405 kts 330°
2026-04-29 15:47 48.24553 21.56101 36221 ft 405 kts 330°
2026-04-29 15:47 48.29644 21.52492 36218 ft 405 kts 330°
2026-04-29 15:48 48.34731 21.48878 36212 ft 404 kts 330°
2026-04-29 15:48 48.39818 21.45256 36216 ft 405 kts 330°
2026-04-29 15:49 48.44927 21.41611 36223 ft 406 kts 330°
2026-04-29 15:49 48.50035 21.37956 36232 ft 407 kts 330°
2026-04-29 15:50 48.55154 21.34287 36236 ft 408 kts 330°
2026-04-29 15:50 48.60264 21.30616 36242 ft 410 kts 330°
2026-04-29 15:51 48.65520 21.27183 36254 ft 416 kts 339°
2026-04-29 15:51 48.71339 21.25981 36326 ft 431 kts 356°
2026-04-29 15:52 48.77360 21.27278 36496 ft 439 kts
2026-04-29 15:52 48.80371 21.28112 36626 ft 439 kts
2026-04-29 15:52 48.83375 21.28937 36749 ft 439 kts
2026-04-29 15:52 48.86390 21.29763 36859 ft 439 kts
2026-04-29 15:53 48.89357 21.30576 36968 ft 439 kts
2026-04-29 15:53 48.92359 21.31400 37072 ft 439 kts
2026-04-29 15:53 48.95361 21.32225 37180 ft 439 kts
2026-04-29 15:54 49.01373 21.33879 37255 ft 439 kts
2026-04-29 15:54 49.07377 21.35537 37256 ft 438 kts
2026-04-29 15:55 49.13384 21.37200 37261 ft 439 kts
2026-04-29 15:55 49.19400 21.38871 37258 ft 439 kts
2026-04-29 15:56 49.25425 21.40547 37265 ft 440 kts
2026-04-29 15:56 49.31451 21.42229 37265 ft 440 kts
2026-04-29 15:57 49.37445 21.43906 37265 ft 441 kts
2026-04-29 15:57 49.43486 21.45600 37271 ft 441 kts
2026-04-29 15:58 49.49523 21.47298 37275 ft 441 kts
2026-04-29 15:58 49.55554 21.49000 37280 ft 441 kts
2026-04-29 15:59 49.61583 21.50704 37288 ft 441 kts
2026-04-29 15:59 49.67617 21.52414 37290 ft 441 kts
2026-04-29 16:00 49.73608 21.54116 37297 ft 440 kts
2026-04-29 16:00 49.79630 21.55832 37300 ft 440 kts
2026-04-29 16:01 49.85653 21.57552 37298 ft 440 kts
2026-04-29 16:01 49.91657 21.59271 37302 ft 439 kts
2026-04-29 16:02 49.97670 21.60997 37307 ft 439 kts
2026-04-29 16:02 50.03672 21.62724 37309 ft 438 kts
2026-04-29 16:03 50.09666 21.64453 37317 ft 438 kts
2026-04-29 16:03 50.15659 21.66186 37317 ft 438 kts
2026-04-29 16:04 50.21652 21.67925 37320 ft 437 kts
2026-04-29 16:04 50.27598 21.69654 37321 ft 437 kts
2026-04-29 16:05 50.33576 21.71397 37326 ft 436 kts
2026-04-29 16:05 50.39547 21.73142 37331 ft 436 kts
2026-04-29 16:06 50.45511 21.74890 37339 ft 436 kts
2026-04-29 16:06 50.51469 21.76640 37339 ft 435 kts
2026-04-29 16:07 50.57420 21.78393 37339 ft 435 kts
2026-04-29 16:07 50.63368 21.80149 37339 ft 434 kts
2026-04-29 16:08 50.69309 21.81908 37344 ft 434 kts
2026-04-29 16:08 50.75208 21.83658 37348 ft 434 kts
2026-04-29 16:09 50.81138 21.85422 37349 ft 433 kts
2026-04-29 16:09 50.87059 21.87188 37355 ft 433 kts
2026-04-29 16:10 50.92990 21.88962 37358 ft 433 kts
2026-04-29 16:10 50.98904 21.90735 37368 ft 432 kts
2026-04-29 16:11 51.04813 21.92511 37367 ft 432 kts
2026-04-29 16:11 51.10724 21.94292 37373 ft 432 kts
2026-04-29 16:12 51.16599 21.96068 37369 ft 432 kts
2026-04-29 16:12 51.22505 21.97857 37365 ft 432 kts
2026-04-29 16:13 51.28414 21.99652 37367 ft 431 kts
2026-04-29 16:13 51.34309 22.01448 37363 ft 431 kts
2026-04-29 16:14 51.40206 22.03249 37370 ft 431 kts
2026-04-29 16:14 51.46097 22.05052 37368 ft 431 kts
2026-04-29 16:15 51.51944 22.06847 37369 ft 431 kts
2026-04-29 16:15 51.57835 22.08659 37370 ft 431 kts
2026-04-29 16:16 51.63721 22.10475 37364 ft 430 kts
2026-04-29 16:16 51.69606 22.12296 37368 ft 430 kts
2026-04-29 16:17 51.75479 22.14118 37366 ft 430 kts
2026-04-29 16:17 51.81364 22.15948 37369 ft 430 kts
2026-04-29 16:18 51.87228 22.17777 37371 ft 429 kts
2026-04-29 16:18 51.93061 22.19601 37371 ft 429 kts
2026-04-29 16:19 51.98932 22.21442 37367 ft 429 kts
2026-04-29 16:19 52.04795 22.23285 37367 ft 429 kts
2026-04-29 16:20 52.10620 22.25120 37370 ft 428 kts
2026-04-29 16:20 52.16474 22.26970 37364 ft 428 kts
2026-04-29 16:21 52.22318 22.28822 37363 ft 428 kts
2026-04-29 16:21 52.28160 22.30678 37364 ft 427 kts
2026-04-29 16:22 52.34000 22.32539 37365 ft 427 kts
2026-04-29 16:22 52.39794 22.34389 37366 ft 426 kts
2026-04-29 16:23 52.45620 22.36255 37373 ft 426 kts
2026-04-29 16:23 52.51432 22.38121 37370 ft 425 kts
2026-04-29 16:24 52.57247 22.39995 37359 ft 425 kts
2026-04-29 16:24 52.63046 22.41867 37363 ft 424 kts
2026-04-29 16:25 52.68804 22.43731 37359 ft 424 kts
2026-04-29 16:25 52.74589 22.45609 37353 ft 423 kts
2026-04-29 16:26 52.80368 22.47491 37355 ft 423 kts
2026-04-29 16:26 52.86145 22.49376 37356 ft 422 kts
2026-04-29 16:27 52.91917 22.51265 37353 ft 422 kts
2026-04-29 16:27 52.97642 22.53144 37357 ft 422 kts
2026-04-29 16:28 53.03403 22.55040 37350 ft 422 kts
2026-04-29 16:28 53.09163 22.56940 37358 ft 422 kts
2026-04-29 16:29 53.14919 22.58845 37356 ft 421 kts
2026-04-29 16:29 53.20672 22.60753 37354 ft 421 kts
2026-04-29 16:30 53.25451 22.62343 37355 ft 421 kts
2026-04-29 16:30 53.31196 22.64259 37360 ft 421 kts
2026-04-29 16:31 53.36951 22.66183 37355 ft 421 kts
2026-04-29 16:31 53.42699 22.68110 37356 ft 421 kts
2026-04-29 16:32 53.48396 22.70026 37359 ft 420 kts
2026-04-29 16:32 53.54138 22.71961 37359 ft 420 kts
2026-04-29 16:33 53.62741 22.74872 37355 ft 420 kts
2026-04-29 16:33 53.68466 22.76815 37356 ft 419 kts
2026-04-29 16:34 53.74154 22.78751 37357 ft 419 kts
2026-04-29 16:34 53.79868 22.80702 37354 ft 419 kts
2026-04-29 16:35 53.85585 22.82658 37356 ft 419 kts
2026-04-29 16:35 53.91304 22.84619 37360 ft 419 kts
2026-04-29 16:36 53.97018 22.86583 37356 ft 418 kts
2026-04-29 16:36 54.02728 22.88551 37362 ft 418 kts
2026-04-29 16:37 54.08432 22.90496 37356 ft 417 kts
2026-04-29 16:37 54.13208 22.91561 37348 ft 416 kts
2026-04-29 16:38 54.19895 22.92868 37352 ft 416 kts
2026-04-29 16:38 54.25636 22.94088 37348 ft 416 kts
2026-04-29 16:39 54.31374 22.95342 37353 ft 416 kts
2026-04-29 16:39 54.37115 22.96603 37352 ft 416 kts
2026-04-29 16:40 54.42857 22.97867 37350 ft 415 kts
2026-04-29 16:40 54.48556 22.99125 37353 ft 415 kts
2026-04-29 16:41 54.54293 23.00395 37353 ft 415 kts
2026-04-29 16:41 54.60029 23.01667 37354 ft 415 kts
2026-04-29 16:42 54.65755 23.02942 37354 ft 415 kts
2026-04-29 16:42 54.71477 23.04219 37355 ft 414 kts
2026-04-29 16:43 54.77197 23.05499 37350 ft 414 kts
2026-04-29 16:43 54.82872 23.06773 37348 ft 413 kts
2026-04-29 16:44 54.88576 23.08057 37346 ft 413 kts
2026-04-29 16:44 54.94278 23.09344 37344 ft 413 kts
2026-04-29 16:45 54.99972 23.10633 37342 ft 412 kts
2026-04-29 16:45 55.05659 23.11924 37351 ft 412 kts
2026-04-29 16:46 55.11346 23.13218 37342 ft 412 kts
2026-04-29 16:46 55.16992 23.14508 37333 ft 412 kts
2026-04-29 16:47 55.22708 23.15817 37332 ft 411 kts
2026-04-29 16:47 55.28380 23.17119 37336 ft 411 kts
2026-04-29 16:48 55.34023 23.18418 37337 ft 411 kts
2026-04-29 16:48 55.39708 23.19731 37339 ft 411 kts
2026-04-29 16:49 55.45386 23.21046 37337 ft 412 kts
2026-04-29 16:49 55.51070 23.22366 37338 ft 412 kts
2026-04-29 16:50 55.56753 23.23690 37342 ft 412 kts
2026-04-29 16:50 55.62402 23.25009 37345 ft 412 kts
2026-04-29 16:51 55.68090 23.26342 37346 ft 412 kts
2026-04-29 16:51 55.73781 23.27678 37345 ft 412 kts
2026-04-29 16:52 55.79476 23.29019 37346 ft 413 kts
2026-04-29 16:52 55.85175 23.30366 37346 ft 413 kts
2026-04-29 16:53 55.90869 23.31716 37345 ft 413 kts
2026-04-29 16:53 55.96570 23.33072 37349 ft 413 kts
2026-04-29 16:54 56.02274 23.34433 37347 ft 413 kts
2026-04-29 16:54 56.07945 23.35789 37347 ft 414 kts
2026-04-29 16:55 56.13653 23.37159 37350 ft 414 kts
2026-04-29 16:55 56.19364 23.38534 37357 ft 414 kts
2026-04-29 16:56 56.25084 23.39915 37346 ft 414 kts
2026-04-29 16:56 56.30803 23.41299 37349 ft 415 kts
2026-04-29 16:57 56.36526 23.42687 37358 ft 415 kts
2026-04-29 16:57 56.42246 23.44361 37360 ft 417 kts
2026-04-29 16:58 56.47972 23.46181 37357 ft 417 kts
2026-04-29 16:58 56.53673 23.47952 37364 ft 418 kts
2026-04-29 16:59 56.59412 23.49722 37360 ft 419 kts
2026-04-29 16:59 56.65162 23.51498 37360 ft 419 kts
2026-04-29 17:00 56.70921 23.53282 37358 ft 420 kts
2026-04-29 17:00 56.76690 23.55074 37384 ft 421 kts
2026-04-29 17:01 56.82487 23.56881 37372 ft 423 kts
2026-04-29 17:01 56.88290 23.58698 37373 ft 423 kts
2026-04-29 17:02 56.94066 23.60510 37375 ft 424 kts
2026-04-29 17:02 56.99876 23.62340 37371 ft 424 kts
2026-04-29 17:03 57.05688 23.64176 37370 ft 423 kts
2026-04-29 17:03 57.11494 23.66016 37372 ft 423 kts
2026-04-29 17:04 57.17298 23.67861 37366 ft 423 kts
2026-04-29 17:04 57.23100 23.69710 37368 ft 423 kts
2026-04-29 17:05 57.28907 23.71567 37367 ft 423 kts
2026-04-29 17:05 57.34679 23.73419 37364 ft 423 kts
2026-04-29 17:06 57.40481 23.75286 37367 ft 423 kts
2026-04-29 17:06 57.46281 23.77160 37369 ft 423 kts
2026-04-29 17:07 57.51100 23.78721 37368 ft 422 kts
2026-04-29 17:07 57.57875 23.80923 37369 ft 422 kts
2026-04-29 17:08 57.63663 23.82811 37368 ft 422 kts
2026-04-29 17:08 57.69447 23.84703 37368 ft 422 kts
2026-04-29 17:09 57.75231 23.86602 37366 ft 422 kts
2026-04-29 17:09 57.80973 23.88494 37362 ft 421 kts
2026-04-29 17:10 57.86745 23.90400 37364 ft 421 kts
2026-04-29 17:10 57.92516 23.92268 37382 ft 421 kts
2026-04-29 17:11 57.95411 23.93095 37501 ft 421 kts
2026-04-29 17:11 57.98312 23.93900 37621 ft 421 kts
2026-04-29 17:11 58.01203 23.94708 37735 ft 421 kts
2026-04-29 17:11 58.04101 23.95528 37855 ft 421 kts
2026-04-29 17:12 58.06997 23.96356 37966 ft 421 kts
2026-04-29 17:12 58.09891 23.97189 38066 ft 421 kts
2026-04-29 17:12 58.13766 23.98309 38187 ft 421 kts
2026-04-29 17:13 58.18576 23.99703 38345 ft 421 kts
2026-04-29 17:13 58.21472 24.00545 38342 ft 420 kts
2026-04-29 17:13 58.27246 24.02227 38338 ft 419 kts
2026-04-29 17:14 58.33018 24.03914 38337 ft 419 kts
2026-04-29 17:14 58.38793 24.05607 38329 ft 419 kts
2026-04-29 17:15 58.44519 24.07291 38327 ft 419 kts
2026-04-29 17:15 58.50292 24.08995 38329 ft 419 kts
2026-04-29 17:16 58.56067 24.10706 38330 ft 420 kts
2026-04-29 17:16 58.61846 24.12423 38335 ft 420 kts
2026-04-29 17:17 58.66648 24.13854 38329 ft 420 kts
2026-04-29 17:17 58.72433 24.15583 38319 ft 420 kts
2026-04-29 17:18 58.79157 24.17600 38330 ft 420 kts
2026-04-29 17:18 58.83999 24.19058 38323 ft 421 kts
2026-04-29 17:19 58.89750 24.20794 38325 ft 421 kts
2026-04-29 17:19 58.95539 24.22548 38317 ft 421 kts
2026-04-29 17:20 59.01323 24.24306 38320 ft 421 kts
2026-04-29 17:20 59.07113 24.26072 38317 ft 421 kts
2026-04-29 17:21 59.12896 24.27841 38323 ft 421 kts
2026-04-29 17:21 59.18684 24.29619 38315 ft 421 kts
2026-04-29 17:22 59.24437 24.31392 38323 ft 421 kts
2026-04-29 17:22 59.30220 24.33180 38321 ft 421 kts
2026-04-29 17:23 59.36001 24.34973 38323 ft 420 kts
2026-04-29 17:23 59.41780 24.36772 38311 ft 420 kts
2026-04-29 17:24 59.47555 24.38577 38313 ft 420 kts
2026-04-29 17:24 59.53349 24.39956 38292 ft 419 kts
2026-04-29 17:25 59.59157 24.40688 38292 ft 418 kts
2026-04-29 17:25 59.64964 24.41426 37968 ft 416 kts
2026-04-29 17:26 59.67784 24.41776 38294 ft 398 kts
2026-04-29 17:26 59.70532 24.42123 38281 ft 393 kts
2026-04-29 17:26 59.76028 24.42828 38279 ft 397 kts
2026-04-29 17:27 59.81548 24.43539 38278 ft 397 kts
2026-04-29 17:27 59.87063 24.44255 38284 ft 397 kts
2026-04-29 17:28 59.92582 24.44973 38280 ft 397 kts
2026-04-29 17:28 59.98101 24.45693 38272 ft 397 kts
2026-04-29 17:29 60.03588 24.46411 38275 ft 398 kts
2026-04-29 17:29 60.09115 24.47137 38268 ft 398 kts
2026-04-29 17:30 60.14644 24.47864 38261 ft 398 kts
2026-04-29 17:30 60.20182 24.48594 38259 ft 398 kts
2026-04-29 17:31 60.25713 24.49327 38249 ft 399 kts
2026-04-29 17:31 60.31258 24.50063 38253 ft 399 kts
2026-04-29 17:32 60.36760 24.50796 38257 ft 399 kts
2026-04-29 17:32 60.42296 24.51537 38249 ft 399 kts
2026-04-29 17:33 60.47842 24.52281 38253 ft 399 kts
2026-04-29 17:33 60.53384 24.53027 38263 ft 399 kts
2026-04-29 17:34 60.58899 24.53773 38255 ft 399 kts
2026-04-29 17:34 60.64437 24.54523 38250 ft 399 kts
2026-04-29 17:35 60.72738 24.55653 38251 ft 398 kts
2026-04-29 17:36 60.78266 24.56408 38253 ft 398 kts
2026-04-29 17:36 60.83798 24.57167 38246 ft 398 kts
2026-04-29 17:37 60.89325 24.57928 38246 ft 398 kts
2026-04-29 17:37 60.94847 24.58690 38241 ft 398 kts
2026-04-29 17:38 61.00366 24.59454 38236 ft 397 kts
2026-04-29 17:38 61.05886 24.60222 38237 ft 397 kts
2026-04-29 17:39 61.11395 24.60991 38237 ft 397 kts
2026-04-29 17:39 61.16911 24.61764 38229 ft 397 kts
2026-04-29 17:40 61.22386 24.62533 38234 ft 397 kts
2026-04-29 17:40 61.27901 24.63310 38231 ft 397 kts
2026-04-29 17:41 61.33405 24.64089 38230 ft 397 kts
2026-04-29 17:41 61.38917 24.64872 38227 ft 397 kts
2026-04-29 17:42 61.44428 24.65658 38230 ft 397 kts
2026-04-29 17:42 61.49940 24.66446 38225 ft 397 kts
2026-04-29 17:43 61.55460 24.67238 38221 ft 397 kts
2026-04-29 17:43 61.60977 24.68033 38219 ft 397 kts
2026-04-29 17:44 61.66469 24.68827 38218 ft 398 kts
2026-04-29 17:44 61.71993 24.69628 38215 ft 398 kts
2026-04-29 17:45 61.77519 24.70432 38208 ft 398 kts
2026-04-29 17:45 61.83046 24.71240 38208 ft 398 kts
2026-04-29 17:46 61.88579 24.72051 38212 ft 398 kts
2026-04-29 17:46 61.94079 24.72861 38215 ft 398 kts
2026-04-29 17:47 61.99609 24.73678 38216 ft 398 kts
2026-04-29 17:47 62.05144 24.74498 38217 ft 398 kts
2026-04-29 17:48 62.10682 24.75322 38221 ft 398 kts
2026-04-29 17:48 62.16214 24.76148 38223 ft 399 kts
2026-04-29 17:49 62.21747 24.76978 38223 ft 398 kts
2026-04-29 17:49 62.27286 24.77811 38222 ft 398 kts
2026-04-29 17:50 62.32820 24.78647 38222 ft 398 kts
2026-04-29 17:50 62.38314 24.79479 38217 ft 398 kts
2026-04-29 17:51 62.43848 24.80321 38219 ft 398 kts
2026-04-29 17:51 62.49383 24.81166 38222 ft 398 kts
2026-04-29 17:52 62.54909 24.82012 38214 ft 398 kts
2026-04-29 17:52 62.60435 24.82862 38215 ft 398 kts
2026-04-29 17:53 62.65967 24.83716 38213 ft 398 kts
2026-04-29 17:53 62.71502 24.84573 38212 ft 399 kts
2026-04-29 17:54 62.77041 24.85435 38210 ft 399 kts
2026-04-29 17:54 62.82545 24.86294 38210 ft 399 kts
2026-04-29 17:55 62.88092 24.87164 38210 ft 399 kts
2026-04-29 17:55 62.93634 24.88036 38212 ft 399 kts
2026-04-29 17:56 62.99182 24.88912 38216 ft 399 kts
2026-04-29 17:56 63.04733 24.89792 38213 ft 400 kts
2026-04-29 17:57 63.10280 24.90675 38213 ft 400 kts
2026-04-29 17:57 63.15832 24.91562 38213 ft 400 kts
2026-04-29 17:58 63.21386 24.92452 37958 ft 400 kts
2026-04-29 17:58 63.24118 24.92892 37464 ft 399 kts
2026-04-29 17:58 63.26922 24.93344 36763 ft 399 kts
2026-04-29 17:58 63.29652 24.93786 36009 ft 399 kts
2026-04-29 17:59 63.32414 24.94234 35290 ft 396 kts
2026-04-29 17:59 63.35155 24.94679 34622 ft 392 kts
2026-04-29 17:59 63.37858 24.95120 33916 ft 387 kts
2026-04-29 17:59 63.40539 24.95557 32968 ft 387 kts
2026-04-29 18:00 63.43219 24.95993 32236 ft 383 kts
2026-04-29 18:00 63.45858 24.96424 31575 ft 379 kts
2026-04-29 18:00 63.48474 24.96852 30900 ft 376 kts
2026-04-29 18:00 63.51076 24.97279 30156 ft 373 kts
2026-04-29 18:01 63.53644 24.97700 29565 ft 366 kts
2026-04-29 18:01 63.56153 24.98114 29249 ft 357 kts
2026-04-29 18:01 63.58636 24.98523 28891 ft 359 kts
2026-04-29 18:01 63.61123 24.98931 28412 ft 358 kts
2026-04-29 18:02 63.63572 24.99832 28060 ft 357 kts 10°
2026-04-29 18:02 63.65998 25.01101 27789 ft 359 kts 10°
2026-04-29 18:02 63.68434 25.02368 27524 ft 359 kts 10°
2026-04-29 18:02 63.70835 25.03618 27260 ft 357 kts 10°
2026-04-29 18:03 63.73251 25.04877 26990 ft 356 kts 10°
2026-04-29 18:03 63.75656 25.06133 26736 ft 355 kts 10°
2026-04-29 18:03 63.78064 25.07393 26267 ft 355 kts 10°
2026-04-29 18:03 63.80465 25.08652 25743 ft 353 kts 10°
2026-04-29 18:04 63.82875 25.09916 24758 ft 359 kts 10°
2026-04-29 18:04 63.85320 25.11199 24012 ft 360 kts 10°
2026-04-29 18:04 63.87736 25.12474 23524 ft 352 kts 10°
2026-04-29 18:04 63.90079 25.13717 23194 ft 340 kts 10°
2026-04-29 18:05 63.92367 25.14930 22702 ft 333 kts 10°
2026-04-29 18:05 63.94600 25.16114 22212 ft 327 kts 10°
2026-04-29 18:05 63.96059 25.16888 21889 ft 323 kts 10°
2026-04-29 18:05 63.98228 25.18040 21416 ft 317 kts 10°
2026-04-29 18:06 64.00357 25.19173 20947 ft 312 kts 10°
2026-04-29 18:06 64.03134 25.20653 20329 ft 306 kts 10°
2026-04-29 18:06 64.05198 25.21755 19866 ft 302 kts 10°
2026-04-29 18:06 64.06591 25.22498 19557 ft 311 kts 10°
2026-04-29 18:07 64.08764 25.23651 19118 ft 325 kts 10°
2026-04-29 18:07 64.10960 25.24827 18679 ft 323 kts 11°
2026-04-29 18:07 64.13130 25.25998 18180 ft 318 kts 11°
2026-04-29 18:07 64.15280 25.27159 17657 ft 317 kts 11°
2026-04-29 18:08 64.17429 25.28318 17146 ft 317 kts 11°
2026-04-29 18:08 64.19571 25.29475 16649 ft 316 kts 11°
2026-04-29 18:08 64.21709 25.30631 16135 ft 315 kts 11°
2026-04-29 18:08 64.23844 25.31787 15619 ft 314 kts 11°
2026-04-29 18:09 64.25944 25.32926 15124 ft 314 kts 11°
2026-04-29 18:09 64.28098 25.34096 14622 ft 313 kts 11°
2026-04-29 18:09 64.30191 25.35235 14144 ft 314 kts 11°
2026-04-29 18:09 64.32312 25.36391 13615 ft 312 kts 11°
2026-04-29 18:10 64.34424 25.37545 13078 ft 311 kts 11°
2026-04-29 18:10 64.36526 25.38694 12535 ft 310 kts 11°
2026-04-29 18:10 64.38624 25.39843 12020 ft 309 kts 11°
2026-04-29 18:10 64.40712 25.40990 11501 ft 308 kts 11°
2026-04-29 18:11 64.42798 25.42135 10999 ft 307 kts 11°
2026-04-29 18:11 64.44874 25.43278 10501 ft 307 kts 11°
2026-04-29 18:11 64.46938 25.44416 10016 ft 300 kts 11°
2026-04-29 18:11 64.48907 25.45508 9777 ft 280 kts 11°
2026-04-29 18:12 64.50742 25.46530 9607 ft 261 kts 11°
2026-04-29 18:12 64.52467 25.47489 9387 ft 254 kts 11°
2026-04-29 18:12 64.54193 25.48441 8961 ft 255 kts 11°
2026-04-29 18:12 64.55922 25.49396 8545 ft 255 kts 11°
2026-04-29 18:13 64.57650 25.50353 8124 ft 255 kts 11°
2026-04-29 18:13 64.59378 25.51312 7691 ft 256 kts 11°
2026-04-29 18:13 64.61112 25.52278 7255 ft 256 kts 11°
2026-04-29 18:13 64.62847 25.53246 6828 ft 256 kts 11°
2026-04-29 18:14 64.64566 25.54208 6380 ft 250 kts 11°
2026-04-29 18:14 64.66244 25.55148 5929 ft 247 kts 11°
2026-04-29 18:14 64.67936 25.56093 5487 ft 252 kts 11°
2026-04-29 18:14 64.69649 25.57051 5051 ft 254 kts 11°
2026-04-29 18:15 64.71363 25.58013 4584 ft 251 kts 11°
2026-04-29 18:15 64.73044 25.58961 4131 ft 246 kts 11°
2026-04-29 18:15 64.74680 25.59884 3696 ft 244 kts 11°
2026-04-29 18:15 64.76338 25.60914 3248 ft 248 kts 17°
2026-04-29 18:16 64.77896 25.62646 2788 ft 247 kts 30°
2026-04-29 18:16 64.79345 25.64772 2338 ft 244 kts 30°
2026-04-29 18:16 64.80775 25.66828 1984 ft 237 kts 29°
2026-04-29 18:16 64.82210 25.68439 1893 ft 219 kts
2026-04-29 18:17 64.83640 25.68353 1897 ft 197 kts 340°
2026-04-29 18:17 64.84823 25.66796 1896 ft 196 kts 313°
2026-04-29 18:17 64.85596 25.64265 1901 ft 188 kts 298°
2026-04-29 18:17 64.86233 25.61756 1905 ft 172 kts 299°
2026-04-29 18:18 64.86857 25.59358 1900 ft 173 kts 300°
2026-04-29 18:18 64.87456 25.57067 1901 ft 154 kts 300°
2026-04-29 18:18 64.88005 25.54958 1911 ft 152 kts 299°
2026-04-29 18:18 64.88550 25.52853 1762 ft 153 kts 299°
2026-04-29 18:19 64.89081 25.50799 1501 ft 138 kts 299°
2026-04-29 18:19 64.89558 25.48953 1258 ft 126 kts 298°
2026-04-29 18:19 64.90007 25.47209 1048 ft 125 kts 298°
2026-04-29 18:19 64.90453 25.45457 829 ft 124 kts 298°
2026-04-29 18:20 64.90889 25.43707 647 ft 123 kts 298°
2026-04-29 18:20 64.91327 25.41977 488 ft 123 kts 300°
2026-04-29 18:20 64.91774 25.40251 359 ft 123 kts 300°
2026-04-29 18:20 64.92219 25.38538 170 ft 123 kts 301°
2026-04-29 18:21 64.92657 25.36828 49 ft 117 kts 300°
2026-04-29 18:21 64.92999 25.35488 49 ft 70 kts 301°
2026-04-29 18:21 64.93195 25.34724 52 ft 49 kts 301°
2026-04-29 18:21 64.93331 25.34203 50 ft 16 kts 309°
2026-04-29 18:22 64.93421 25.34066 52 ft 14 kts 345°
2026-04-29 18:22 64.93501 25.34102 51 ft 11 kts 36°
2026-04-29 18:22 64.93512 25.34237 51 ft 10 kts 116°
2026-04-29 18:22 64.93470 25.34404 47 ft 13 kts 121°
2026-04-29 18:23 64.93416 25.34614 51 ft 16 kts 121°
2026-04-29 18:23 64.93353 25.34862 51 ft 19 kts 121°
2026-04-29 18:23 64.93281 25.35144 48 ft 21 kts 121°
2026-04-29 18:23 64.93201 25.35458 51 ft 23 kts 121°
2026-04-29 18:24 64.93120 25.35777 48 ft 24 kts 121°
2026-04-29 18:24 64.93049 25.36056 48 ft 21 kts 121°
2026-04-29 18:24 64.92969 25.36367 51 ft 23 kts 121°
2026-04-29 18:24 64.92887 25.36688 49 ft 22 kts 121°
2026-04-29 18:25 64.92811 25.36986 50 ft 19 kts 121°
2026-04-29 18:25 64.92751 25.37222 47 ft 11 kts 121°
2026-04-29 18:25 64.92709 25.37387 50 ft 10 kts 121°
2026-04-29 18:25 64.92706 25.37470 50 ft 5 kts 57°
2026-04-29 18:26 64.92742 25.37525 50 ft 7 kts 30°
2026-04-29 18:26 64.92756 25.37546 50 ft 2 kts 30°
2026-04-29 18:26 64.92759 25.37550 50 ft 0 kts 30°